Home   Weather   San Jose   Past weeks

Flag for Costa Rica Past Weather in San Jose, Costa Rica — Yesterday and Last 2 Weeks

Now
68 °F

Passing clouds.


Feels Like: 68 °F
Forecast: 61 / 80 °F
Wind: 15 mph from East

Location: Juan Santamaria

Current Time: Jan 18, 2017 at 4:29:33 am

Latest Report: Jan 18, 2017 at 3:00 am


Visibility: N/A

Pressure: 29.99 "Hg (26.19 "Hg at 1161m altitude)

Humidity: 69%

Dew Point: 57 °F

Location of San JoseLocation

Past Weather in San Jose — Graph

°F

San Jose Temperature Yesterday

Maximum temperature yesterday: 84 °F (at 3:00 pm)
Minimum temperature yesterday: 63 °F (at 6:00 am)
Average temperature yesterday: 73 °F

High & Low Weather Summary for the Past Weeks

 TemperatureHumidityPressure
High86 °F (Jan 4, 12:00 pm)94% (Jan 4, 6:00 pm)30.10 "Hg (Jan 4, 6:00 pm)
Low63 °F (Jan 17, 6:00 am)31% (Jan 4, 1:00 pm)29.88 "Hg (Jan 4, 3:00 pm)
Average73 °F62%29.98 "Hg
* Reported Jan 3 3:00 am — Jan 18 3:00 am, San Jose, Weather by CustomWeather, © 2017

Note: Actual official high and low records may vary slightly from our data, if they occured in-between our weather recording intervals... More about our weather records

Advertising

San Jose Weather History for the Previous 24 Hours

Scroll right to see more
 ConditionsComfort  
Time TempWeatherWind HumidityBarometerVisibility
3:00 am
Wed, Jan 18
68 °FPassing clouds.15 mph69%29.99 "HgN/A
2:00 am68 °FPassing clouds.15 mph69%30.00 "HgN/A
1:00 am70 °FClear.14 mph64%30.01 "Hg10 mi
12:00 am70 °FClear.14 mph64%30.03 "Hg10 mi
11:00 pm
Tue, Jan 17
70 °FClear.15 mph64%30.05 "Hg10 mi
10:00 pm70 °FPassing clouds.15 mph69%30.05 "HgN/A
9:00 pm70 °FClear.14 mph69%30.04 "Hg10 mi
8:00 pm70 °FClear.12 mph69%30.03 "Hg10 mi
7:00 pm72 °FClear.16 mph65%30.01 "Hg10 mi
6:00 pm73 °FPassing clouds.12 mph61%29.99 "HgN/A
5:00 pm77 °FPassing clouds.13 mph54%29.97 "HgN/A
3:00 pm84 °FPassing clouds.17 mph43%29.95 "HgN/A
2:00 pm82 °FPassing clouds.17 mph42%29.95 "HgN/A
1:00 pm82 °FPassing clouds.13 mph42%29.98 "HgN/A
12:00 pm81 °FSunny.9 mph48%30.00 "Hg10 mi
11:00 am82 °FSunny.13 mph42%30.02 "Hg10 mi
10:00 am81 °FSunny.13 mph42%30.03 "Hg10 mi
9:00 am79 °FSunny.10 mph42%30.04 "Hg10 mi
8:00 am73 °FSunny.12 mph57%30.03 "Hg10 mi
7:00 am68 °FSunny.8 mph69%30.02 "Hg10 mi
6:00 am63 °FSunny.8 mph77%30.00 "Hg10 mi
5:00 am64 °FClear.9 mph78%29.99 "Hg10 mi
4:00 am64 °FClear.6 mph73%29.97 "Hg10 mi
Weather by CustomWeather, © 2017

See weather overviewHow to use our weather pages